Home > Weather > Ljubljana > Past weeks

Flag for Slovenia Past Weather in Ljubljana, Slovenia — Yesterday and Last 2 Weeks

Now
65 °F

Mild.


Feels Like: 65 °F
Forecast: 56 / 68 °F
Wind: 1 mph from Southwest

Location: Ljubljana / Bezigrad

Current Time: May 29, 2016 at 4:05:03 AM

Latest Report: May 29, 2016 at 3:00 AM


Visibility: N/A

Pressure: 29.85 "Hg

Humidity: 67%

Dew Point: 53 °F

Location of LjubljanaLocation

Past Weather in Ljubljana — Graph

°F

Ljubljana Temperature Yesterday

Maximum temperature yesterday: 83 °F (at 4:00 PM)
Minimum temperature yesterday: 57 °F (at 5:00 AM)
Average temperature yesterday: 72 °F

High & Low Weather Summary for the Past Weeks

 TemperatureHumidityPressure
High83 °F (May 27, 4:00 PM)95% (May 17, 6:00 AM)30.18 "Hg (May 17, 6:00 AM)
Low42 °F (May 17, 6:00 AM)26% (May 18, 6:00 PM)29.56 "Hg (May 14, 2:00 AM)
Average60 °F66%29.94 "Hg
* Reported May 14 2:00 AM — May 29 2:00 AM, Ljubljana, Weather by CustomWeather, © 2016

Note: Actual official high and low records may vary slightly from our data, if they occured in-between our weather recording intervals... More about our weather records

Advertising

Ljubljana Weather History for the Previous 24 Hours

Scroll right to see more
 ConditionsComfort  
Time TempWeatherWind HumidityBarometerVisibility
2:00 AM
Sun, May 29
66 °FMild.2 mph63%29.86 "HgN/A
1:00 AM68 °FMild.1 mph60%29.88 "HgN/A
12:00 AM69 °FMild.2 mph59%29.89 "HgN/A
11:00 PM
Sat, May 28
71 °FMild.1 mph58%29.88 "HgN/A
10:00 PM72 °FPassing clouds.3 mph55%29.88 "Hg25 mi
9:00 PM74 °FPassing clouds.2 mph48%29.86 "Hg25 mi
8:00 PM77 °FPassing clouds.3 mph42%29.85 "Hg25 mi
7:00 PM80 °FPleasantly warm.2 mph39%29.84 "HgN/A
6:00 PM82 °FPassing clouds.3 mph37%29.83 "Hg25 mi
5:00 PM83 °FPassing clouds.5 mph34%29.83 "Hg25 mi
4:00 PM83 °FPassing clouds.5 mph38%29.85 "Hg31 mi
3:00 PM82 °FPassing clouds.6 mph36%29.86 "Hg31 mi
2:00 PM82 °FPassing clouds.5 mph38%29.88 "Hg25 mi
1:00 PM80 °FPassing clouds.5 mph39%29.89 "Hg25 mi
12:00 PM80 °FPassing clouds.5 mph37%29.90 "Hg25 mi
11:00 AM77 °FPassing clouds.3 mph44%29.92 "Hg25 mi
8:00 AM65 °FPassing clouds.1 mph62%29.98 "Hg19 mi
7:00 AM60 °FFog.No wind71%30.00 "Hg3 mi
6:00 AM57 °FPassing clouds.1 mph76%30.01 "Hg19 mi
5:00 AM57 °FCool.No wind76%30.01 "HgN/A
4:00 AM58 °FCool.No wind74%30.01 "HgN/A
Weather by CustomWeather, © 2016

See weather overviewHow to use our weather pages